Theta_e
348 347 348 349 350 350 351 351 351 352 352 352 351 350 350 355 353 352 352 351 352 352 352 352 352 351 351 352 351 351 350 349 349 349 348 349 349 350 349 350 349 348 349 348 348 347 344 342 341 343 345 342 340 341 344 348 351 351 353 352 350 350 350 346 342 343 345 347 347 347 351 354 350 354 354 354 355 356 356 356 353 348 346 344 343
347 346 348 349 349 350 351 351 350 351 351 351 351 351 352 352 354 354 351 352 355 351 352 353 353 352 351 351 352 351 350 349 349 348 348 349 349 351 350 348 348 348 348 347 348 347 345 342 342 344 345 345 343 341 339 342 348 348 349 352 351 350 353 349 345 342 341 344 344 349 349 353 349 354 352 352 353 355 349 346 345 342 341 340 339
347 347 347 346 347 348 348 348 349 349 349 349 348 349 351 355 356 352 353 353 354 352 350 351 352 352 351 351 351 351 350 350 350 349 348 348 349 350 350 349 348 347 347 347 347 347 345 344 343 343 346 343 342 341 341 343 347 346 347 351 350 351 353 352 347 344 344 343 345 345 347 349 347 350 353 353 353 353 346 344 342 341 339 337 336
346 347 346 346 347 347 346 348 349 349 349 350 350 352 352 354 353 354 353 354 352 353 353 352 351 351 351 350 350 349 348 349 350 349 348 349 349 349 350 349 349 348 348 348 348 347 345 343 343 343 344 343 341 340 341 344 344 344 344 347 349 349 353 354 351 347 345 345 343 344 348 345 347 350 351 352 349 346 343 341 340 336 336 335 334
346 345 346 347 347 347 348 349 349 350 350 350 349 351 352 353 353 352 353 354 353 353 353 353 351 351 351 351 350 349 351 349 348 349 349 349 349 350 350 349 349 348 348 348 353 347 346 345 344 344 344 343 342 341 341 343 344 344 344 344 347 348 352 354 352 349 345 344 344 348 347 345 345 349 350 345 344 343 340 337 336 334 333 334 334
346 344 346 346 346 345 345 346 346 345 348 348 349 351 351 351 350 352 353 349 349 351 351 353 353 350 350 351 350 348 349 349 347 347 347 349 349 349 350 350 350 349 348 347 346 348 347 345 345 345 344 342 342 342 343 343 343 344 343 345 347 349 347 348 350 351 347 344 345 343 344 342 341 345 350 347 341 337 336 336 336 336 335 333 333
346 345 346 347 346 345 343 345 345 345 346 344 346 348 348 348 350 348 350 350 347 346 350 351 350 351 351 350 350 349 349 349 348 347 347 347 347 347 348 349 349 349 349 348 346 345 346 346 345 345 344 343 342 341 341 344 347 346 345 344 346 346 347 347 351 351 347 345 342 343 342 342 341 340 344 350 344 338 335 334 333 334 333 330 328
346 345 345 346 346 346 346 346 345 345 346 346 348 350 350 351 350 350 351 350 349 349 353 353 352 353 350 349 351 350 348 348 347 346 348 351 351 348 347 346 347 348 349 348 347 346 345 345 345 345 345 345 345 344 343 344 349 348 346 346 346 344 343 345 347 348 346 344 342 342 338 338 340 342 346 348 342 340 338 335 330 329 329 330 329
345 344 344 344 344 345 347 347 348 350 349 346 346 345 347 350 348 350 354 353 351 350 353 354 354 354 353 351 351 351 349 348 349 349 350 351 351 350 349 347 346 346 346 347 347 346 346 346 346 346 350 358 360 358 356 357 347 346 348 350 347 344 343 343 347 346 344 342 338 337 338 337 338 338 341 342 340 339 340 336 331 330 329 328 329
342 339 341 342 344 344 344 344 343 343 343 342 342 342 343 345 346 346 349 350 349 348 348 351 351 353 353 352 351 351 350 350 353 355 355 352 349 351 351 350 348 346 346 345 345 346 346 346 349 359 362 365 367 367 364 364 363 350 346 351 350 346 345 347 347 346 344 341 341 340 337 337 338 338 340 344 345 344 338 334 329 329 329 327 329
340 341 341 341 342 341 341 341 341 340 339 339 339 340 341 342 342 342 342 344 348 349 352 350 350 349 350 351 351 352 354 354 358 348 347 354 352 349 348 349 349 349 349 348 345 347 348 350 351 356 363 369 367 368 368 365 365 363 363 365 361 350 348 349 349 348 345 342 341 340 340 338 338 341 340 342 345 343 338 334 331 329 327 325 322
340 340 340 340 340 340 340 339 338 337 337 336 336 338 339 339 339 340 341 342 344 346 346 348 350 351 350 351 351 351 353 359 348 344 344 344 352 351 349 347 347 348 348 347 346 346 346 348 351 356 359 358 357 354 362 368 364 364 363 366 369 366 361 353 348 347 345 343 340 340 340 339 339 341 342 341 342 343 338 335 331 329 328 327 324
339 339 339 339 339 339 338 337 336 335 335 335 336 336 335 337 337 338 339 342 342 340 340 341 342 345 350 347 348 351 351 354 343 343 341 340 344 352 348 347 348 349 347 345 344 344 346 348 351 354 355 362 360 352 352 354 365 364 366 367 371 368 353 354 359 353 350 347 344 342 341 342 339 341 345 344 346 342 338 334 332 331 331 329 326
337 338 336 338 336 336 336 335 334 332 333 333 333 333 334 335 336 337 340 338 337 338 339 339 340 340 345 347 349 350 346 339 336 337 336 337 338 345 346 347 348 348 348 346 345 345 348 349 350 350 349 352 351 349 349 346 347 348 350 351 353 362 368 360 360 365 359 350 346 344 344 344 343 343 348 348 344 342 338 335 334 332 332 331 329
333 334 335 334 334 334 334 333 332 331 332 332 332 332 333 333 334 337 336 336 336 336 336 336 339 343 341 342 345 340 336 330 329 331 330 332 335 345 345 350 349 349 348 345 344 347 349 351 347 346 348 348 351 351 346 345 346 348 346 346 347 350 350 354 359 360 360 354 350 348 347 346 346 347 347 350 347 345 342 340 337 335 332 327 325
332 333 333 332 332 332 332 331 330 330 330 329 330 330 331 332 332 336 336 332 333 335 335 337 338 338 341 341 341 335 333 326 326 327 326 327 335 346 347 347 346 347 347 346 346 346 347 347 346 344 346 347 358 358 357 348 344 344 345 346 347 346 346 352 343 347 350 346 348 351 352 353 350 351 350 346 344 343 344 341 337 331 327 324 320
331 335 333 333 333 331 331 331 330 328 328 328 328 329 330 330 331 335 330 330 330 332 333 336 338 338 341 338 335 333 334 326 322 323 323 325 338 343 345 346 344 344 346 349 348 348 348 348 348 348 349 348 353 342 343 357 345 344 343 343 343 342 345 344 335 335 333 331 331 333 334 336 334 334 335 338 342 342 340 336 333 331 327 322 321
332 333 331 332 332 330 330 330 330 329 327 327 328 328 329 330 331 336 329 329 329 331 334 334 335 338 340 338 336 332 328 326 319 319 319 321 336 342 345 342 341 341 343 343 344 344 347 354 353 347 347 347 343 331 332 347 345 344 343 341 341 341 342 341 341 338 332 330 330 330 331 332 335 334 334 335 334 340 340 335 335 332 329 326 321
332 331 331 331 331 331 330 330 329 328 326 327 328 328 328 330 332 330 329 328 330 330 335 330 333 336 338 339 343 335 331 330 320 317 317 318 328 336 340 343 342 342 342 341 342 342 342 349 351 348 346 345 327 327 329 343 343 342 342 340 341 341 342 339 340 335 334 337 338 340 341 344 342 340 341 340 341 345 341 340 335 332 331 328 326
331 331 331 331 330 331 330 332 329 327 325 327 326 326 329 329 327 328 327 326 328 327 330 328 328 331 332 331 331 332 333 332 327 316 316 318 321 330 337 340 342 342 342 342 340 340 340 336 337 328 323 323 321 323 326 329 341 342 342 342 340 340 339 339 342 339 336 337 336 339 339 338 340 343 342 342 343 346 343 341 336 335 334 330 326
331 330 330 330 329 328 327 328 327 327 326 327 329 329 327 325 326 325 325 323 322 323 324 325 327 329 330 330 328 328 329 326 327 315 315 315 317 323 331 338 339 340 340 343 342 339 333 332 330 325 317 317 315 316 318 324 335 342 343 344 344 342 345 341 345 346 341 340 336 333 332 332 332 333 335 337 339 341 342 338 336 335 333 330 325
331 330 329 328 327 326 327 326 329 329 328 326 324 324 326 325 326 324 323 322 321 321 323 326 326 329 329 327 327 325 327 328 323 319 315 312 313 318 325 335 338 339 338 336 334 333 331 330 328 320 315 315 313 312 313 320 329 338 328 318 320 326 340 338 338 335 332 331 330 329 329 329 329 331 332 333 334 335 333 332 331 331 331 330 325
330 329 329 328 326 326 326 329 328 328 328 326 323 323 326 328 327 329 328 325 322 322 324 326 327 327 327 327 327 327 327 326 324 324 321 312 311 313 318 325 325 335 336 333 332 329 327 324 325 320 311 308 308 310 313 317 325 318 313 316 320 326 334 331 332 330 328 327 327 326 326 327 328 328 329 329 329 330 329 329 328 328 328 328 326
330 330 331 327 325 324 326 327 324 324 326 323 323 320 321 324 327 328 329 328 323 323 325 326 326 326 325 325 326 326 325 323 324 323 321 314 311 310 313 315 318 333 335 330 326 323 321 321 318 307 304 303 305 308 310 317 317 310 314 318 323 329 329 328 326 327 327 326 325 325 325 326 327 327 327 328 327 327 327 327 326 326 325 325 325
330 329 327 325 326 323 324 322 322 322 321 321 320 319 318 319 321 322 325 323 321 323 324 324 322 323 325 325 324 326 325 324 323 325 323 319 312 312 315 316 317 321 327 325 324 322 314 307 305 306 307 307 310 313 314 315 312 313 314 320 329 326 326 325 325 324 324 324 324 324 326 327 327 327 327 327 327 327 325 324 325 324 324 324 323
330 327 325 325 324 324 324 324 324 325 324 321 319 316 316 318 320 319 319 321 321 322 324 324 323 323 323 324 324 324 325 324 323 324 327 325 319 313 313 316 321 321 323 320 316 312 309 309 309 311 317 320 323 322 322 322 317 319 321 325 324 324 324 324 324 324 323 324 325 325 325 326 326 326 327 325 324 323 323 322 321 321 321 319 318
330 327 325 326 325 325 323 320 319 318 318 318 317 317 316 314 314 315 315 315 317 320 321 325 323 324 324 323 323 323 323 321 320 320 321 323 325 323 322 322 322 322 321 320 319 318 319 321 318 314 315 317 320 321 322 323 322 322 322 323 323 323 324 324 324 324 325 325 325 326 326 327 327 327 324 323 322 323 324 323 320 319 319 318 316
328 326 326 326 325 321 320 327 318 312 311 310 309 310 313 313 309 309 310 310 310 312 315 321 325 326 324 321 320 322 321 320 318 315 317 319 325 325 324 323 322 321 321 321 323 324 321 321 319 321 320 319 319 318 318 318 318 318 318 320 322 325 326 327 327 325 325 326 326 326 326 326 324 324 324 323 323 324 324 323 321 319 320 318 316
329 326 325 322 322 323 319 315 312 310 307 306 305 304 304 308 311 309 307 305 306 309 311 315 320 322 325 323 323 321 321 319 317 310 313 308 317 324 323 322 322 323 325 320 325 325 322 319 319 318 317 317 315 314 313 314 315 315 316 317 319 320 322 323 323 323 325 325 325 325 324 324 324 324 324 323 324 323 324 323 323 321 321 320 317
328 326 322 321 319 318 315 313 312 311 309 308 307 308 309 302 302 308 308 312 306 302 303 311 315 318 315 312 314 320 320 318 307 301 300 300 301 303 306 309 314 321 318 315 327 321 319 317 316 314 314 313 312 313 312 311 312 312 314 317 318 319 321 321 322 323 324 324 324 324 324 324 323 323 323 322 322 322 323 323 322 323 320 319 318
328 325 323 320 320 318 315 312 311 310 309 309 309 310 308 308 301 299 305 308 302 297 297 299 303 311 319 315 312 306 306 301 299 298 297 297 299 300 302 303 304 303 308 319 323 318 317 315 316 316 315 314 313 312 312 312 313 313 314 315 316 318 319 319 320 322 323 323 323 323 323 323 322 323 322 322 322 322 322 322 322 321 319 318 316
327 325 321 320 323 320 313 314 313 311 309 309 309 309 307 307 308 304 300 302 301 298 297 297 297 300 306 314 318 312 306 300 298 298 298 298 297 299 300 300 300 302 305 311 321 317 316 315 313 312 312 312 313 314 313 312 312 312 313 314 314 316 316 316 317 321 321 322 321 322 322 323 323 322 322 322 322 321 320 319 318 317 315 315 315
327 324 322 322 322 321 317 315 314 312 311 311 311 310 308 308 307 307 308 304 300 298 298 297 297 297 297 298 302 304 304 301 299 299 298 298 299 299 300 301 302 300 307 317 316 315 314 313 312 313 314 313 312 312 311 310 309 310 309 311 312 311 312 313 316 318 319 320 321 321 322 322 322 322 321 320 319 318 318 317 316 316 315 314 314
328 325 323 322 320 318 317 316 314 312 312 311 311 310 311 311 309 310 310 310 312 309 305 301 300 301 298 298 299 299 298 298 300 300 298 299 298 298 301 304 298 298 309 318 315 313 313 313 313 313 313 315 314 315 314 312 312 312 312 310 310 311 313 312 314 315 316 317 317 318 318 319 320 319 318 317 318 317 316 316 315 314 313 313 312
327 332 332 328 320 320 318 316 314 313 313 314 315 315 314 314 315 314 312 312 311 309 310 312 307 301 306 305 303 301 299 300 299 298 297 298 300 298 300 316 318 318 317 317 316 314 315 315 315 315 315 314 314 314 313 313 314 314 311 311 311 311 312 313 314 314 313 311 313 314 315 316 315 317 317 316 315 314 314 314 313 313 313 312 312
327 329 329 328 324 321 320 317 316 315 315 315 315 315 317 319 319 316 313 315 313 311 312 310 311 313 309 303 303 301 300 299 299 299 298 299 298 305 317 313 315 315 315 315 316 317 317 316 316 314 314 314 315 314 313 314 314 313 313 314 314 313 312 313 315 312 312 311 312 313 312 311 313 314 312 313 314 314 313 314 314 314 314 312 312
328 329 328 326 324 323 322 321 318 317 321 320 318 317 319 321 320 317 315 313 313 312 308 310 311 314 315 322 326 311 306 303 302 302 301 300 299 313 317 317 315 316 317 316 317 317 316 316 316 315 315 314 313 313 315 314 314 316 320 314 313 312 310 310 311 315 309 309 308 309 308 309 310 312 313 312 311 312 313 314 315 316 315 316 316
329 329 327 326 325 325 324 323 322 325 323 322 319 318 321 320 318 316 316 315 315 314 310 309 319 311 310 311 328 324 322 312 309 309 309 308 314 320 318 319 318 317 316 316 316 316 315 314 315 316 316 315 314 313 314 313 313 312 313 311 313 313 320 316 318 311 310 309 309 308 310 309 309 311 313 312 311 311 313 314 313 312 314 316 313
328 329 329 329 328 325 325 326 326 325 324 323 322 322 321 318 317 315 314 315 314 313 313 311 311 313 312 314 311 324 319 314 316 314 315 315 316 316 316 316 317 316 316 316 319 317 316 316 316 317 316 316 316 314 313 312 312 312 311 311 311 311 311 309 310 309 310 308 308 308 308 308 308 309 311 311 311 312 312 312 313 313 312 310 308
327 327 328 329 327 326 327 329 328 326 326 323 321 320 320 318 315 314 313 312 312 312 313 313 312 314 313 315 315 317 316 320 318 316 315 314 315 315 315 316 315 316 316 315 315 315 317 315 317 317 316 316 314 313 312 313 312 311 310 310 308 309 308 308 308 308 308 308 308 308 308 309 308 309 309 310 310 310 311 311 312 312 312 310 310
326 327 332 328 328 326 328 327 326 325 326 325 321 320 318 317 315 315 313 313 313 314 314 314 312 313 313 314 310 309 315 316 318 318 319 317 315 314 314 315 315 316 317 316 316 315 315 315 315 316 315 314 314 314 313 312 312 311 311 312 310 310 309 309 310 310 309 310 308 309 309 308 309 308 308 308 316 311 310 311 311 311 311 311 310
326 325 328 326 327 327 326 326 325 328 328 326 322 318 319 318 315 314 315 315 317 316 314 314 313 313 311 308 299 299 312 316 317 316 316 316 315 314 315 313 314 315 315 314 314 315 314 315 315 314 314 315 314 314 313 311 311 311 311 309 310 311 309 308 309 309 309 308 308 307 307 310 311 310 311 316 309 307 309 308 308 309 308 308 309
327 326 326 327 326 326 326 325 325 324 323 324 322 324 321 318 316 317 317 318 317 318 315 313 312 315 315 309 305 303 309 312 328 316 315 314 314 315 313 312 311 313 313 314 313 314 315 314 313 313 314 314 314 313 312 311 312 311 310 309 309 310 308 309 309 309 308 308 308 310 308 308 308 305 307 309 306 307 306 308 307 306 306 306 309
327 327 327 327 327 326 326 324 324 324 323 326 326 324 322 319 318 318 317 318 318 318 316 313 313 314 315 311 306 306 311 313 315 314 315 316 313 314 312 312 312 312 312 313 313 314 314 313 312 311 311 311 311 311 311 313 313 311 310 310 309 310 308 309 309 308 307 307 307 307 306 307 307 308 308 309 305 306 305 306 306 306 304 305 307
326 326 325 325 325 324 323 323 324 323 325 328 324 323 325 320 318 319 319 319 321 319 316 315 315 315 315 314 312 311 312 313 317 316 314 313 313 312 311 311 312 312 312 314 313 313 312 312 311 310 310 309 309 310 310 311 312 313 311 311 310 310 308 309 309 308 308 308 307 307 306 306 304 304 306 306 307 305 305 305 306 312 306 306 306
326 325 325 324 324 323 323 321 324 322 323 323 322 321 322 321 319 320 321 321 321 320 317 316 316 316 316 315 314 315 314 314 315 314 314 313 313 313 312 312 312 313 314 313 312 313 312 311 310 310 309 308 308 309 309 309 309 310 310 310 310 309 308 309 309 308 308 307 306 305 306 305 304 305 311 304 304 303 303 304 304 305 304 306 304
325 325 325 324 324 323 322 322 322 321 321 322 321 321 320 320 319 320 322 321 320 321 317 317 316 316 316 315 315 313 315 315 314 314 313 314 314 313 312 313 314 313 313 313 313 313 313 312 310 310 309 308 308 308 307 307 307 307 308 306 307 309 310 310 310 309 308 307 307 306 306 307 307 308 312 308 306 306 305 303 304 304 304 305 304
325 324 324 324 323 323 321 322 322 327 322 321 320 320 319 319 319 319 317 321 321 318 317 316 315 315 316 314 314 313 315 314 314 315 314 314 312 312 312 314 314 313 313 312 313 313 313 312 312 311 311 310 310 308 306 304 305 304 303 303 303 304 308 306 309 308 308 308 307 307 307 307 306 305 304 304 303 304 304 303 305 304 304 304 303
325 324 323 323 322 323 322 322 322 322 321 319 319 320 318 318 318 317 317 318 317 316 316 315 314 313 313 313 313 312 315 315 312 312 313 312 312 312 313 314 313 312 313 313 312 313 312 312 311 308 307 307 307 307 307 306 303 303 302 301 300 301 303 304 306 308 306 310 308 307 306 305 305 305 305 304 304 303 303 303 303 304 305 304 304
325 324 323 323 322 322 322 322 321 321 320 318 318 317 317 317 316 316 316 316 315 314 314 314 314 313 313 312 312 313 314 314 313 312 313 312 312 313 314 313 312 313 313 312 313 312 311 311 311 310 308 307 306 307 306 306 303 303 302 301 300 299 300 302 304 303 308 310 308 306 305 304 304 304 304 304 303 303 303 303 303 303 303 302 302
324 324 323 322 322 321 321 319 319 319 318 318 318 317 316 315 315 316 315 315 315 314 314 314 313 313 312 312 313 313 313 313 313 313 313 312 313 313 314 313 313 313 312 313 312 312 312 311 311 312 310 308 307 306 305 304 302 300 300 300 299 296 295 297 303 301 302 303 307 306 305 305 305 303 303 302 301 301 304 305 304 303 302 301 302
Wind_Speed
7 6 6 6 6 7 7 7 7 6 7 7 5 4 4 4 6 6 4 6 5 6 6 7 7 6 6 6 7 6 6 7 6 6 6 6 6 6 5 5 5 5 5 6 5 4 5 5 6 5 3 4 5 6 4 3 3 4 4 4 5 3 4 4 3 4 2 1 1 1 1 1 1 2 5 4 4 4 4 4 6 6 6 5 5
7 6 5 5 6 6 6 6 6 5 5 4 4 4 4 4 5 6 7 3 2 4 5 5 5 6 6 6 6 6 6 7 7 6 6 6 6 6 6 6 6 6 5 6 7 6 5 5 6 6 4 4 5 5 4 2 4 5 5 5 5 5 4 4 4 2 3 0 1 1 1 1 1 1 5 6 6 5 7 7 6 6 6 5 5
5 6 6 5 5 4 4 4 4 4 5 5 5 3 3 4 3 4 2 1 1 2 3 4 5 5 6 7 6 6 6 7 7 7 7 7 8 7 7 7 7 7 6 6 7 6 6 5 6 5 4 4 4 5 3 3 3 5 5 4 5 5 4 4 3 3 3 3 1 2 1 1 2 3 4 4 5 6 7 6 6 5 6 6 5
5 5 6 6 5 5 3 2 3 4 4 3 1 1 1 2 2 0 0 1 1 1 2 4 4 4 7 7 6 6 4 3 4 6 8 8 8 8 7 7 8 8 7 7 6 6 7 6 7 6 5 5 5 5 5 3 4 5 5 4 3 4 3 4 4 4 3 4 1 1 2 2 2 4 5 6 6 6 6 6 6 7 7 6 6
5 5 5 6 6 5 5 4 4 3 2 2 2 2 1 2 2 1 1 1 0 1 2 3 5 4 6 6 5 5 5 4 3 3 3 4 7 8 8 7 7 7 8 7 7 7 7 7 8 7 6 6 5 5 5 3 4 4 5 4 5 3 1 4 4 3 3 4 1 1 1 2 2 3 4 6 6 6 5 6 6 6 7 7 6
6 5 5 5 6 6 5 5 5 4 4 3 2 2 2 2 3 1 1 2 2 1 2 4 4 6 7 6 5 4 4 4 5 5 4 3 3 5 7 7 8 8 7 7 7 6 7 8 8 7 7 6 7 6 4 5 4 5 5 4 3 2 1 1 2 4 4 4 4 2 1 3 1 2 3 6 8 6 5 4 5 4 4 6 5
6 6 6 6 6 6 6 6 6 6 5 4 3 3 3 3 2 3 4 5 4 3 4 4 6 7 8 7 6 6 6 6 5 5 5 4 4 4 5 6 7 8 8 8 7 7 7 7 7 7 7 7 7 7 6 5 4 6 6 5 3 3 3 4 4 5 5 4 2 1 3 0 2 3 2 5 6 7 8 7 4 3 3 4 6
6 5 5 4 5 6 6 6 6 6 5 3 4 5 5 4 4 5 6 7 5 5 4 4 6 8 7 5 5 5 5 5 5 5 4 5 5 6 5 4 5 6 8 8 7 7 8 8 8 7 7 7 7 7 6 7 5 5 6 4 4 4 4 4 4 4 4 4 3 4 2 3 1 1 2 5 6 4 4 3 6 5 4 3 4
4 4 4 3 3 3 3 3 4 4 5 4 4 4 3 2 2 1 1 3 4 2 4 4 5 3 3 4 4 4 5 6 5 5 5 5 4 5 5 5 6 7 7 7 7 7 7 7 7 7 8 11 12 11 9 9 7 6 5 5 6 6 6 3 4 4 3 3 3 2 3 3 3 5 6 6 9 8 6 4 4 5 4 5 3
4 3 3 3 4 4 4 4 5 5 5 5 3 3 3 3 3 2 0 2 6 7 6 5 3 3 2 3 4 4 5 4 7 10 7 4 3 2 1 1 3 4 5 5 7 7 7 6 6 12 14 14 14 14 14 14 11 8 7 7 8 7 6 5 5 6 5 5 6 5 5 6 6 7 8 8 5 6 7 7 7 6 5 5 4
4 5 5 4 5 4 4 4 4 5 4 3 3 3 3 3 3 2 2 2 0 1 2 2 2 3 6 5 4 4 4 5 9 9 8 5 3 3 3 3 3 3 4 4 5 4 1 1 2 5 7 9 8 13 14 13 13 13 12 12 12 11 8 7 7 7 7 7 6 6 7 7 7 7 8 7 7 8 8 8 7 7 8 8 5
6 5 5 5 5 5 4 4 5 4 3 3 2 1 1 2 2 1 2 2 2 1 1 1 2 3 5 6 5 4 3 5 7 7 5 5 4 3 4 5 5 4 3 3 2 1 0 0 1 1 1 2 2 0 3 8 11 13 12 13 13 15 13 11 8 6 7 7 6 8 7 8 7 7 6 6 7 6 7 8 9 9 8 7 5
5 5 5 5 5 5 5 5 4 4 3 3 2 1 1 0 0 1 1 1 1 2 2 2 2 3 2 3 3 4 4 3 5 4 4 5 6 6 4 5 5 5 4 5 4 3 2 0 0 0 1 3 2 2 2 1 2 6 7 5 6 10 11 13 12 10 9 9 8 8 9 8 7 8 8 8 8 8 7 7 7 8 8 9 7
5 4 4 5 5 5 5 5 4 3 3 2 2 2 2 1 0 1 0 1 1 1 2 2 2 2 2 2 4 0 2 7 5 4 4 3 3 3 3 5 4 3 3 5 5 5 4 4 3 1 1 0 0 1 2 2 1 1 0 2 4 6 8 11 11 12 11 9 9 9 9 6 8 9 9 7 10 10 9 10 9 8 9 8 5
5 4 5 4 4 5 5 4 3 3 2 1 1 1 1 0 0 0 0 0 0 1 1 2 2 2 2 2 1 4 4 7 5 5 3 1 2 4 4 4 4 4 4 4 3 2 2 4 4 5 3 3 3 3 2 2 1 1 1 3 4 4 4 4 6 6 6 6 7 9 7 8 8 5 7 9 9 10 13 12 12 9 5 7 7
5 5 5 4 4 4 5 4 3 3 3 3 3 2 1 1 1 0 0 1 1 1 2 1 2 2 2 2 4 3 3 6 6 5 5 5 6 3 3 3 3 3 3 1 2 1 3 3 4 3 2 2 5 7 5 2 2 3 4 4 4 3 4 2 1 2 1 3 4 4 5 5 7 4 6 4 7 6 4 4 6 7 8 7 7
4 5 6 5 5 4 4 4 3 2 2 3 2 1 1 1 1 0 1 1 2 2 1 2 2 2 3 3 4 3 2 4 5 5 4 5 5 3 2 3 2 1 1 3 5 4 1 1 1 0 1 2 4 5 6 5 4 4 4 4 4 4 5 1 2 3 2 3 3 5 6 4 8 14 14 14 9 8 7 7 8 9 8 8 6
5 6 6 5 5 4 4 4 4 3 3 2 0 0 1 1 0 0 2 1 2 1 1 2 2 2 2 3 3 3 1 2 6 8 7 6 5 3 2 1 2 3 1 1 0 0 1 5 4 1 1 2 3 5 6 3 3 4 4 4 5 5 6 2 1 0 1 1 2 4 4 4 4 8 12 15 14 12 10 11 11 10 10 10 9
6 6 5 4 4 4 4 4 5 4 3 0 0 0 1 0 1 1 1 1 1 0 1 2 1 2 2 2 4 4 0 1 4 4 6 7 6 3 3 2 2 3 2 1 1 1 1 3 1 1 2 2 2 3 4 3 2 3 3 3 5 5 5 2 3 2 1 1 1 1 1 2 3 4 7 14 12 9 8 8 6 11 12 10 8
5 5 4 4 4 4 3 4 4 4 3 0 1 1 2 1 1 1 1 1 1 1 1 1 2 1 1 2 3 3 1 1 1 5 7 6 7 5 4 2 3 3 3 5 4 4 1 3 5 6 5 3 1 1 1 2 2 3 2 3 4 6 3 3 4 4 3 3 1 2 2 4 4 2 5 9 10 11 11 5 8 11 10 10 11
5 5 5 4 4 3 3 4 4 2 2 1 1 1 2 1 1 1 0 1 1 1 1 1 2 1 2 1 2 1 0 1 2 3 5 6 6 5 3 3 3 3 4 5 4 4 2 2 2 4 3 3 2 2 1 3 5 4 4 5 3 1 0 3 4 7 4 3 3 3 3 3 3 3 2 1 3 5 5 3 4 5 3 5 7
6 5 5 5 4 3 3 3 3 3 3 3 3 2 1 1 1 0 0 1 1 1 0 1 2 2 1 2 2 2 2 3 3 1 1 4 5 5 3 3 2 1 4 3 4 3 3 3 1 2 3 3 4 5 5 4 3 1 2 4 4 4 2 3 3 4 4 3 3 3 2 3 3 3 3 4 4 5 5 4 3 4 6 6 9
7 6 5 4 4 4 3 3 3 2 2 2 3 2 0 1 1 1 0 0 1 1 0 1 2 2 2 1 1 2 2 2 5 3 2 4 6 5 5 5 5 3 4 5 4 4 2 2 1 4 4 5 6 7 6 5 5 3 4 4 4 4 4 4 4 4 4 3 4 4 2 2 3 3 3 4 4 5 5 5 6 7 8 9 9
7 6 5 4 4 3 2 2 1 1 2 3 3 2 1 1 1 2 2 0 0 1 1 0 1 2 2 1 1 3 3 3 4 5 4 5 6 5 5 6 6 4 3 5 4 4 4 2 2 5 6 8 8 9 8 7 4 5 5 5 6 4 3 5 4 4 4 3 4 4 3 3 3 4 4 5 6 6 7 7 7 8 10 10 12
7 6 5 4 4 2 1 1 2 2 2 3 3 2 2 2 1 2 2 2 1 1 1 1 1 1 1 2 1 0 1 1 2 2 6 6 7 5 2 2 3 6 6 4 4 3 6 8 8 8 8 9 9 8 8 8 9 8 8 7 6 3 4 4 5 5 5 4 4 4 4 5 5 6 6 7 8 8 9 9 9 10 10 11 11
6 5 4 4 3 3 2 1 2 3 3 3 3 3 2 1 1 2 2 2 2 2 2 1 1 2 2 1 1 0 1 3 4 4 4 5 6 8 8 8 8 9 9 8 10 11 10 9 8 7 6 5 5 5 5 5 8 9 9 7 4 4 4 5 5 5 5 5 5 6 6 6 6 6 6 6 7 7 8 9 10 9 10 11 12
6 5 4 4 3 3 3 3 3 3 3 3 3 3 3 3 2 2 2 1 2 2 3 2 2 2 2 2 2 1 1 3 4 4 4 3 3 3 4 7 11 11 8 6 6 5 4 3 6 9 9 10 9 7 7 6 6 5 4 4 4 4 4 4 4 6 5 6 6 6 6 7 6 7 7 7 8 6 7 9 10 9 9 9 11
6 5 4 3 3 5 5 7 6 4 3 2 3 3 3 3 3 2 1 1 1 0 2 1 3 3 3 1 0 0 1 2 3 4 4 4 3 4 4 5 6 6 6 4 4 4 5 6 6 5 5 5 5 5 5 5 5 5 5 4 5 5 6 8 8 6 5 6 6 7 7 6 7 7 7 8 8 7 7 8 9 9 9 9 10
6 5 4 5 5 4 5 5 5 5 3 2 2 1 1 3 1 1 0 2 2 3 2 1 1 1 1 1 2 1 1 2 2 2 3 3 1 3 4 4 4 4 5 5 4 2 3 5 4 4 5 5 5 5 5 5 5 5 5 5 4 4 4 4 6 6 6 7 7 7 7 7 7 7 8 8 7 7 6 9 7 9 8 7 9
6 6 6 6 6 6 6 5 5 5 4 4 3 3 4 3 2 1 1 4 3 3 3 2 2 0 4 3 2 0 2 1 2 5 5 4 8 8 6 8 7 6 5 6 1 3 2 4 5 5 5 5 5 5 5 5 5 5 5 4 4 5 5 5 5 6 6 7 6 7 7 7 7 7 7 8 7 6 6 7 7 7 9 9 9
6 6 7 6 7 6 6 6 5 5 4 4 4 4 3 3 5 6 4 3 3 5 2 4 3 4 2 3 2 4 5 4 5 4 7 8 9 9 9 7 6 7 7 5 2 3 4 5 4 4 5 5 5 5 4 4 4 4 4 4 4 5 5 5 5 5 6 6 6 6 6 7 7 7 7 8 8 7 6 6 7 7 8 8 9
7 7 7 6 8 7 6 7 7 6 5 4 4 4 4 5 4 4 3 2 2 4 4 7 7 7 6 4 4 1 3 4 5 7 6 7 7 6 6 5 3 4 2 2 3 4 4 5 5 5 5 5 4 4 4 4 3 4 4 5 5 4 5 5 3 5 6 6 6 6 6 6 7 7 7 7 8 7 7 6 7 8 7 6 7
7 6 7 7 7 8 7 7 7 7 6 5 4 3 5 5 6 4 2 2 3 6 7 6 6 6 7 7 4 4 4 2 2 3 3 3 5 5 4 4 0 1 4 4 6 5 4 5 5 4 4 5 3 4 4 4 4 3 3 5 5 4 4 3 3 5 5 5 5 5 5 6 6 6 6 6 7 7 6 7 6 6 7 7 6
8 7 8 8 8 7 7 7 7 7 6 6 6 5 3 4 5 5 6 4 4 4 5 5 4 4 4 3 3 1 0 2 2 1 3 5 5 5 4 3 6 3 3 5 6 5 5 5 4 3 3 3 5 5 5 5 3 4 3 4 3 3 3 3 5 5 5 5 6 5 5 6 6 7 6 6 6 7 7 6 6 7 6 7 7
6 10 18 12 8 8 7 7 7 7 7 6 6 5 5 4 3 3 3 4 4 4 2 1 2 2 1 2 2 2 3 3 6 6 6 3 4 3 4 4 3 4 3 3 6 6 5 5 4 3 4 4 4 5 4 4 3 4 4 3 3 2 3 3 3 3 5 5 6 5 5 6 5 6 7 7 6 6 6 6 5 6 6 6 6
8 8 11 14 10 8 8 7 7 8 8 7 6 5 5 5 4 3 3 2 3 3 2 0 1 4 3 4 4 3 5 6 6 5 3 1 4 1 4 4 4 5 4 4 5 4 4 4 4 3 4 3 3 3 3 4 3 4 3 3 3 2 1 0 1 2 2 4 4 4 5 5 6 5 6 6 6 6 6 6 5 5 5 5 5
7 8 9 9 9 8 8 7 8 8 7 6 5 5 5 4 3 5 4 5 2 1 1 0 0 1 2 2 1 1 3 4 6 5 2 4 4 2 4 5 6 5 5 6 4 5 4 4 5 4 4 4 2 3 3 3 3 3 3 3 4 3 3 2 3 3 3 3 3 3 4 4 5 5 6 6 5 5 5 5 5 5 5 5 5
7 8 8 9 8 8 8 8 8 10 8 7 6 6 5 5 5 5 5 5 3 2 1 2 2 3 3 3 4 2 3 7 11 9 7 5 3 5 5 3 3 5 4 3 4 6 5 4 6 6 5 5 5 3 3 3 3 3 3 3 3 3 4 3 3 3 3 3 3 3 3 4 5 6 5 6 6 6 5 5 6 6 4 5 5
6 10 12 13 10 8 8 8 8 8 7 7 7 6 6 6 6 5 6 6 4 3 2 3 4 3 4 3 3 4 2 3 3 2 3 3 3 4 5 5 5 5 3 4 4 5 6 6 5 6 6 6 5 5 5 4 4 5 3 4 4 5 5 5 5 5 4 4 3 3 4 4 4 5 6 7 6 6 6 6 6 6 6 5 5
7 7 10 14 7 7 6 7 7 8 7 7 8 7 6 6 6 7 6 7 6 4 4 4 5 5 5 1 2 0 1 0 1 1 2 3 3 3 5 6 6 6 5 4 5 5 6 6 6 6 6 5 5 5 5 5 5 6 4 5 6 5 4 5 5 5 5 4 5 4 5 5 4 4 5 6 7 6 7 7 6 7 7 6 5
7 7 7 7 7 6 5 5 7 7 7 7 8 8 8 7 7 6 6 7 6 5 5 5 6 6 5 4 3 3 1 1 1 3 3 5 4 4 5 5 6 5 4 4 5 5 6 6 6 6 6 6 6 6 5 6 5 4 5 4 4 4 3 5 5 5 4 5 6 5 5 5 5 6 5 4 5 6 6 6 7 7 7 6 6
7 6 6 6 6 6 5 6 6 6 6 6 8 8 7 7 7 7 7 6 6 6 6 5 6 6 6 7 7 4 1 0 1 1 2 4 4 4 4 4 3 4 5 5 6 6 5 6 6 6 6 5 6 5 4 5 4 5 4 4 4 4 5 5 4 4 5 5 5 5 4 4 4 4 5 5 5 5 6 6 7 7 6 6 6
8 7 7 5 6 6 6 6 5 5 5 6 7 7 7 8 7 7 7 6 6 5 6 6 6 4 5 7 4 2 1 1 3 3 3 4 4 4 4 5 5 4 5 5 5 5 6 5 4 4 5 6 6 6 7 7 6 5 4 5 5 5 5 5 4 5 5 5 5 4 4 4 4 4 5 5 4 4 5 5 4 5 4 6 6
8 7 7 7 7 6 6 6 6 6 6 6 6 7 7 7 7 7 7 7 6 6 6 6 6 6 6 4 2 3 3 2 3 5 4 5 4 5 5 5 4 4 3 3 3 5 6 6 5 4 3 2 3 3 4 5 6 6 6 6 5 5 6 6 6 6 6 6 6 5 4 4 4 4 4 4 5 5 3 3 4 3 4 5 6
7 7 7 8 7 7 7 6 7 6 6 5 5 6 7 7 7 7 7 7 7 7 6 6 6 6 6 6 5 6 5 3 4 4 5 6 6 6 6 5 5 4 4 4 4 5 6 6 5 5 4 3 2 3 3 2 4 6 6 7 6 7 7 7 7 6 6 7 6 4 4 4 4 3 3 3 3 4 4 4 4 4 4 4 6
7 7 7 8 8 7 7 7 6 6 6 6 6 5 6 7 7 7 7 7 8 8 8 7 6 6 7 7 7 5 5 4 6 5 4 5 6 7 7 7 6 6 6 6 5 5 6 6 6 5 5 4 3 3 3 3 3 4 5 6 7 7 7 6 6 6 6 7 7 6 6 4 4 4 5 4 3 4 4 3 3 3 5 5 5
7 7 7 7 8 8 8 7 7 7 6 6 6 6 6 7 6 7 6 8 8 8 9 8 7 7 7 7 7 6 5 6 6 6 6 6 6 7 6 5 6 6 6 6 5 6 5 5 5 5 4 4 4 4 3 3 5 4 3 3 4 4 5 6 7 7 7 7 7 7 6 6 4 3 4 4 3 3 4 4 4 4 3 4 5
7 7 7 7 8 8 7 7 8 7 7 7 7 7 6 6 6 6 6 6 7 8 8 8 8 8 7 7 6 6 6 6 6 6 6 6 6 6 6 6 6 6 6 5 4 5 5 5 5 5 5 5 5 5 4 3 3 4 3 2 3 4 7 8 5 5 5 6 6 6 6 6 5 5 5 5 5 5 5 4 3 3 4 4 4
7 7 7 7 7 8 7 7 7 7 7 7 6 6 6 6 6 6 6 6 7 7 8 8 8 7 6 6 6 6 6 5 5 5 6 6 6 6 6 6 5 6 6 6 5 4 5 5 5 5 5 6 6 6 5 4 4 4 3 3 4 7 8 9 6 6 6 6 4 5 5 6 6 5 5 5 5 4 5 4 4 4 4 4 4
8 7 7 7 7 7 6 6 6 6 6 6 7 6 6 6 6 5 5 6 6 6 7 8 8 8 7 7 6 7 6 6 6 6 6 6 6 6 6 6 6 6 6 6 6 6 6 5 4 4 4 5 5 5 5 5 4 4 4 4 6 9 8 8 7 9 7 6 6 6 6 6 6 5 5 5 5 5 4 4 4 4 4 5 4
8 7 7 7 7 6 6 6 6 6 6 6 6 6 6 6 6 6 6 6 7 7 8 8 7 7 7 7 7 7 7 7 7 7 7 6 6 6 6 6 6 6 5 6 6 6 6 5 5 5 4 4 5 5 4 4 4 4 5 6 6 8 10 8 6 7 10 8 6 6 7 7 6 6 5 5 5 5 4 4 4 5 5 5 4
Wind_Direction
184 184 178 186 179 179 180 183 193 198 204 209 215 224 245 256 230 223 212 218 224 232 227 224 221 216 220 223 225 221 215 218 215 211 206 211 212 210 208 202 211 226 228 248 245 239 239 246 261 264 266 282 274 268 238 214 185 192 203 196 211 189 169 179 203 260 321 68 112 146 223 155 75 123 111 101 93 97 100 88 81 79 83 65 49
182 176 180 183 186 180 179 181 192 195 206 211 217 218 225 238 240 215 207 195 190 237 226 220 216 222 227 229 227 224 215 214 214 208 209 210 216 213 210 203 209 222 221 234 244 240 235 237 252 263 270 274 280 264 238 191 185 196 205 198 213 207 187 168 204 198 259 324 101 101 103 264 95 190 135 131 118 111 91 87 73 65 73 70 52
168 169 173 176 185 181 168 171 173 193 206 216 220 221 232 242 233 209 166 281 289 238 258 254 241 228 235 228 222 223 219 219 220 217 215 212 212 216 213 205 208 216 218 227 237 238 241 238 242 243 246 251 260 256 248 192 188 199 210 198 210 214 187 183 151 204 225 253 207 136 152 162 166 159 109 116 119 115 111 97 94 84 75 74 68
166 164 173 179 174 171 178 181 199 205 213 201 176 180 227 240 250 156 119 235 273 317 298 287 275 240 235 238 224 225 229 231 232 225 217 211 211 213 215 211 213 216 217 221 226 229 233 238 242 242 237 238 249 256 259 215 194 202 210 218 210 223 195 176 186 177 185 207 274 163 187 131 52 85 95 86 84 80 94 96 90 95 92 82 82
169 165 172 171 174 172 175 172 174 175 190 179 189 172 212 256 252 241 230 254 187 320 322 308 289 268 244 214 203 198 197 196 202 231 247 230 213 210 213 214 216 218 220 222 222 222 231 230 235 235 239 238 252 257 256 220 213 202 214 217 211 225 172 176 192 172 158 182 161 324 97 75 83 107 120 113 98 86 80 90 98 103 105 105 102
166 170 176 179 182 183 179 166 168 172 174 188 215 177 172 207 237 227 204 274 308 5 302 295 296 274 254 232 208 202 206 206 211 220 224 233 236 228 218 215 220 221 224 225 225 222 226 230 232 230 232 228 242 246 249 231 200 206 210 207 190 153 166 171 170 181 177 173 164 145 126 142 106 108 147 132 128 118 108 95 94 97 112 108 81
171 175 186 193 189 186 182 181 174 183 195 200 193 198 221 224 203 248 227 203 205 244 245 253 264 249 228 216 210 209 210 210 211 214 219 230 244 237 231 227 222 222 224 223 221 220 220 224 228 228 230 229 232 236 230 231 190 201 200 202 172 165 185 204 168 182 179 149 86 191 146 143 143 156 171 152 137 143 142 138 113 73 58 88 106
179 186 188 205 199 193 188 182 179 181 194 192 196 202 201 191 191 217 215 195 194 217 222 227 243 229 225 213 211 211 217 226 227 224 216 219 224 231 226 224 230 233 234 228 221 219 217 218 221 223 224 231 228 236 223 218 197 194 205 185 173 179 199 201 191 190 183 176 156 179 189 159 140 83 114 142 143 157 163 147 142 138 120 82 114
167 175 188 191 184 147 125 138 141 134 129 119 118 113 112 169 238 268 82 129 130 207 228 230 240 250 220 208 209 206 212 223 223 215 208 214 208 219 220 225 232 237 237 240 233 223 218 217 221 223 221 224 224 220 207 198 182 193 194 185 185 194 212 190 175 183 184 170 169 171 163 165 187 159 173 178 189 179 156 123 118 129 129 125 108
158 173 172 147 127 117 110 104 99 97 91 85 82 82 77 75 83 81 224 205 166 196 232 258 261 270 247 232 215 214 223 228 228 225 216 205 197 200 258 274 246 237 238 239 241 238 234 232 231 224 222 222 220 215 212 208 197 191 183 174 178 190 200 189 183 195 184 188 202 181 194 206 195 192 189 202 173 126 139 142 137 142 135 129 142
115 122 118 120 113 106 101 88 88 88 93 91 77 69 66 72 75 52 25 24 311 249 229 255 251 276 278 271 252 235 227 225 225 217 214 207 195 197 215 247 230 233 244 242 238 229 234 244 254 282 272 256 247 244 237 223 217 208 195 178 176 179 183 188 196 185 188 203 194 190 203 214 213 197 203 184 181 168 163 159 145 152 163 156 169
121 119 125 124 126 125 115 106 101 101 95 99 101 90 58 58 45 46 35 356 338 341 358 274 265 225 210 220 232 235 235 242 229 211 174 206 216 210 214 230 243 241 219 208 184 136 104 19 317 314 169 144 136 109 269 243 233 225 211 198 187 187 178 179 185 186 192 198 193 207 202 213 212 197 194 167 185 165 164 164 166 167 171 189 164
134 138 141 135 136 130 127 124 126 126 135 145 143 85 86 46 14 13 357 299 3 1 321 325 326 318 269 240 240 240 244 273 213 164 156 200 230 234 224 228 228 222 201 194 188 191 186 168 120 16 320 64 79 100 77 44 304 238 223 232 230 216 202 200 189 188 187 196 202 209 208 206 198 210 199 184 167 170 160 173 183 189 188 187 179
137 133 130 137 137 129 124 122 128 143 145 133 129 138 120 155 237 224 280 9 17 329 322 332 316 318 312 278 265 276 73 22 37 88 130 161 230 267 261 259 252 243 217 200 200 202 194 183 139 166 233 220 91 79 95 109 103 70 200 228 223 231 218 210 214 205 187 193 198 214 221 194 204 201 201 157 160 177 177 193 186 188 195 201 158
109 108 104 102 100 106 112 109 111 105 101 102 98 90 151 95 331 257 117 78 62 305 299 315 309 322 316 295 93 80 37 27 33 42 31 0 301 254 252 244 237 239 223 202 191 162 152 149 155 178 193 199 203 177 166 165 122 153 189 219 232 234 246 244 224 220 205 200 209 224 222 205 219 194 173 178 178 182 190 188 183 181 129 78 87
119 107 104 104 103 107 107 103 101 102 81 72 69 77 59 67 95 322 41 348 338 353 338 349 0 351 358 57 102 77 37 23 32 31 19 350 311 269 254 239 240 257 257 281 92 168 220 167 160 198 226 219 237 223 203 154 233 231 232 241 241 240 241 262 30 45 174 200 211 220 229 213 219 107 82 137 178 176 134 93 110 123 137 145 148
123 123 122 124 121 123 119 117 118 104 89 89 90 88 122 215 226 177 71 3 11 14 17 32 22 29 65 79 98 83 51 1 359 24 15 4 333 310 279 218 211 258 242 130 147 182 220 69 96 36 299 259 242 227 232 197 195 222 229 233 236 249 255 266 54 66 134 193 231 249 256 271 77 117 164 185 183 154 146 146 171 161 160 163 158
131 127 131 133 133 129 125 121 109 96 95 106 91 299 276 282 233 81 129 102 67 355 90 86 46 38 89 131 153 130 135 359 3 355 351 350 337 321 311 243 219 216 179 76 223 209 277 272 250 147 188 232 305 323 323 310 228 224 225 230 242 246 255 209 142 269 308 228 276 300 315 4 134 157 175 193 182 160 165 192 184 167 185 181 174
134 132 137 136 129 126 127 124 123 119 115 179 201 237 267 269 336 46 82 104 119 328 72 100 82 56 60 50 106 94 64 3 19 351 355 358 343 320 304 278 222 186 150 150 286 281 43 24 50 318 262 267 358 332 333 314 268 249 246 233 244 248 251 183 173 168 191 186 355 358 13 75 122 157 188 198 191 180 212 209 157 179 190 191 167
141 129 124 116 114 114 119 120 122 125 139 170 353 297 301 5 70 92 25 57 74 32 48 80 117 93 67 92 69 37 22 278 24 358 8 355 348 317 280 263 235 187 176 168 198 251 147 82 62 42 29 24 289 277 261 283 247 253 239 235 245 261 241 189 189 175 180 180 153 58 47 39 44 116 162 203 204 199 215 172 175 191 199 187 177
132 126 120 113 114 116 113 122 116 134 161 144 74 48 48 63 44 90 120 47 49 33 24 30 110 93 83 94 90 49 24 347 321 24 355 345 337 334 287 274 240 212 207 202 181 164 122 84 85 60 50 51 26 342 289 257 254 243 236 238 237 299 132 183 203 176 137 132 96 81 65 51 51 42 54 146 182 213 233 173 177 194 183 158 125
127 122 120 124 129 130 129 134 140 145 120 104 93 78 50 54 64 6 122 128 138 145 287 146 137 124 82 53 45 21 348 22 336 294 349 324 316 309 289 267 281 212 128 109 114 130 132 141 140 52 38 75 76 64 36 27 358 253 297 277 275 254 195 128 106 100 115 120 116 95 90 100 87 59 65 63 67 84 81 72 60 87 112 135 143
130 126 127 136 145 152 155 150 144 136 134 134 126 144 183 63 21 0 22 120 174 150 9 169 128 112 103 39 355 344 359 6 10 339 329 326 304 297 271 266 284 265 159 152 158 143 116 92 81 117 104 87 74 65 57 50 49 14 328 293 231 163 113 98 105 113 115 127 110 99 61 45 71 67 67 55 59 81 92 94 98 96 87 92 105
131 135 147 154 157 159 167 153 110 80 103 91 84 77 21 339 44 15 351 347 332 41 331 2 116 140 146 171 358 15 19 22 6 11 354 340 320 294 268 252 261 243 150 140 132 130 137 134 106 99 100 93 84 75 68 62 65 58 68 65 67 67 85 97 96 107 105 87 82 80 77 64 73 70 66 69 73 78 81 86 87 91 102 105 111
140 151 154 162 155 163 122 112 99 91 78 89 85 64 42 27 35 10 6 19 8 267 246 183 164 163 166 179 213 23 0 342 326 13 31 17 11 6 349 166 188 136 104 108 112 111 102 111 122 117 108 104 97 88 74 65 66 65 65 69 75 72 79 93 105 107 100 98 98 97 79 74 73 82 83 88 90 84 83 77 79 83 89 91 93
153 156 157 157 161 148 135 103 88 85 74 60 69 70 75 42 26 17 20 19 348 340 265 198 183 162 162 141 155 265 335 347 350 351 5 29 31 35 48 60 73 73 84 91 99 107 115 124 126 120 100 78 71 71 71 65 62 60 55 54 67 72 89 107 110 107 113 113 111 98 93 94 90 87 87 85 84 92 101 100 99 93 97 102 97
154 152 154 159 147 132 127 111 89 66 59 58 48 42 55 50 60 50 40 5 344 329 315 239 205 193 193 196 188 176 16 17 353 347 355 353 39 55 73 80 83 81 80 94 98 111 126 120 95 92 90 81 78 74 73 65 56 49 43 50 58 63 69 77 101 108 108 108 101 96 97 98 98 92 86 87 88 89 101 107 103 106 104 101 103
152 154 152 150 136 139 139 140 124 85 49 39 35 15 31 55 57 51 47 321 310 292 352 286 208 200 190 190 132 68 13 37 21 358 346 352 11 56 69 88 90 102 104 107 107 107 108 113 99 83 75 69 65 59 55 52 51 52 48 44 52 66 81 88 87 81 87 94 96 98 96 96 95 95 95 92 93 94 101 103 109 108 108 112 107
147 138 133 129 128 125 120 118 124 119 107 77 60 56 9 352 14 344 265 177 207 244 280 308 271 273 131 165 184 141 24 36 0 314 315 296 332 73 79 89 90 82 87 97 104 96 91 87 86 70 64 76 73 68 62 65 55 50 56 53 57 60 63 73 85 87 97 99 99 102 101 98 96 96 98 97 92 92 95 102 103 111 107 99 109
145 139 140 140 138 134 133 131 134 136 138 137 120 83 69 112 48 37 346 10 9 306 256 268 291 322 101 13 330 229 140 159 339 23 24 60 73 74 78 76 83 85 36 351 16 88 76 78 82 95 87 81 85 80 74 71 73 64 56 57 61 66 70 71 77 86 89 91 97 100 101 100 98 99 99 100 93 80 75 97 106 107 111 115 115
150 145 150 154 156 150 147 141 145 138 144 137 116 111 79 32 40 33 10 22 14 10 6 301 354 27 87 105 17 46 82 67 56 49 55 57 66 61 61 65 59 35 21 23 73 78 101 99 83 76 81 82 83 86 83 81 82 80 70 67 65 74 74 75 77 90 92 94 89 90 97 103 106 106 106 104 104 100 92 88 99 102 110 119 116
162 160 157 157 161 155 152 149 145 140 139 134 136 139 124 100 43 23 28 15 111 108 74 57 53 66 61 92 125 39 53 68 71 59 53 58 60 66 50 41 23 43 357 4 104 107 108 102 91 90 95 93 93 89 88 90 81 83 92 86 80 76 86 85 80 91 97 99 101 102 104 107 110 110 109 109 107 104 104 100 101 102 97 95 112
164 158 156 162 162 158 158 155 150 148 152 158 169 163 148 136 122 98 39 13 54 78 71 64 63 66 75 65 68 126 140 102 65 74 70 65 56 39 24 55 53 224 347 56 116 114 106 106 113 113 104 105 104 100 94 96 95 88 82 90 92 80 77 64 77 84 87 99 105 104 106 107 108 104 101 105 106 106 104 103 99 104 113 112 109
176 162 163 167 163 169 169 163 156 163 165 170 170 171 169 154 142 139 123 102 70 40 50 56 68 82 62 82 80 66 310 209 207 148 59 42 38 21 37 18 50 79 89 121 114 125 124 122 126 122 112 105 107 105 98 96 93 91 81 78 90 84 66 53 78 84 89 89 94 97 97 102 110 109 101 95 99 105 107 112 117 116 117 125 128
178 175 172 168 173 175 174 170 165 159 167 175 178 175 165 160 155 145 133 126 128 122 120 11 12 86 111 332 288 297 311 340 3 15 35 25 353 324 139 97 80 61 59 102 119 131 136 142 143 141 135 125 130 127 124 115 104 107 114 115 92 66 57 53 53 66 86 93 97 105 111 111 107 110 116 115 110 110 116 116 113 120 125 124 125
173 175 175 172 171 174 175 176 169 167 174 182 181 174 166 164 152 133 123 115 118 127 118 237 253 274 291 291 278 327 351 333 322 325 357 344 280 107 97 94 101 121 141 145 136 143 141 149 140 144 142 140 130 121 132 128 121 125 147 147 160 171 169 85 70 88 80 102 114 114 111 110 115 110 105 107 117 126 128 125 123 119 118 124 131
167 171 173 173 173 175 177 175 173 174 174 174 172 168 171 160 131 128 126 121 118 97 163 283 344 281 310 302 310 276 251 264 274 286 173 197 224 118 126 136 141 140 142 152 149 145 138 144 136 136 137 136 134 127 113 109 118 123 125 136 147 149 176 172 156 130 123 112 114 115 116 123 126 132 128 128 131 130 135 132 130 131 133 135 128
163 169 176 174 173 176 175 178 183 176 170 174 174 173 173 160 149 149 145 143 141 147 187 253 244 210 230 250 317 324 324 346 358 11 29 64 86 83 99 119 127 126 132 134 147 145 146 144 143 144 155 144 147 145 123 115 114 108 108 119 127 137 129 118 116 115 119 122 137 142 128 132 136 135 130 134 144 146 144 141 136 135 138 136 134
159 166 174 177 178 175 176 179 181 179 171 168 172 170 168 155 152 152 151 146 147 164 210 246 251 247 248 260 289 327 12 6 33 70 47 56 68 100 106 110 108 100 108 130 133 134 142 149 153 145 147 152 150 152 142 136 131 132 141 132 116 115 113 110 105 106 109 122 131 137 134 138 137 139 143 139 150 153 150 145 148 147 149 158 164
158 161 176 176 176 177 168 179 181 187 177 164 170 167 162 160 167 166 157 152 161 179 199 222 239 246 251 262 255 210 126 291 172 194 134 108 108 110 124 119 118 127 131 123 122 128 130 140 146 143 147 150 148 148 148 144 144 149 149 134 129 119 122 121 120 112 120 122 114 117 124 130 136 136 140 150 154 152 147 153 160 164 166 171 175
154 162 165 175 173 171 177 175 182 189 177 168 165 163 164 168 167 162 158 160 166 179 198 219 234 248 248 237 217 211 174 231 199 186 183 143 141 120 115 120 124 124 122 118 121 125 131 138 144 145 149 157 157 154 154 148 143 137 141 134 113 111 109 108 117 119 113 102 106 107 110 119 129 129 136 157 151 149 155 151 158 164 174 170 159
156 154 157 168 170 171 179 186 193 186 178 163 164 166 168 165 163 160 164 169 175 183 196 217 233 243 252 234 198 183 139 214 120 206 200 139 139 137 137 144 147 142 137 137 136 129 131 134 149 153 155 160 162 165 152 152 148 143 138 128 123 122 120 126 127 121 115 114 109 113 113 115 113 119 132 136 137 139 142 153 162 165 161 147 154
161 159 157 160 167 179 184 192 194 187 191 168 170 173 170 164 165 167 169 175 182 185 192 209 227 237 243 238 210 161 222 244 166 201 184 145 141 137 147 158 167 170 159 160 154 143 134 128 137 157 165 172 178 172 168 173 163 155 149 141 139 134 132 128 118 116 118 115 116 119 116 108 107 113 124 127 130 136 147 148 147 153 146 150 161
158 159 157 161 167 180 190 187 193 198 196 187 168 176 174 174 173 172 173 178 185 193 198 205 207 212 233 235 196 204 235 227 159 195 174 152 147 148 155 161 151 148 142 137 138 130 120 116 112 104 98 111 133 145 163 171 158 156 158 151 146 148 147 141 142 145 139 131 129 125 123 119 113 108 110 123 123 117 128 133 143 143 137 146 148
154 156 157 160 168 179 191 197 196 195 197 203 186 180 181 182 180 180 177 180 186 193 203 207 207 205 216 220 206 216 215 189 172 197 176 157 155 160 162 161 157 147 131 128 132 125 120 121 121 114 104 81 67 81 91 113 147 164 164 155 158 162 166 164 168 165 149 138 140 135 137 131 122 111 119 130 130 129 130 145 151 137 121 135 146
157 157 160 164 170 181 186 192 197 193 196 201 204 194 191 189 190 183 181 181 184 191 198 203 204 207 211 217 218 217 202 187 183 202 180 158 160 172 175 170 161 152 149 149 145 133 134 134 131 128 128 121 102 87 81 89 98 128 158 170 170 172 171 162 154 149 151 146 151 155 154 141 143 151 142 135 132 125 127 122 105 132 148 152 163
157 163 163 167 173 181 186 189 187 193 199 203 202 200 195 193 191 193 184 173 179 186 191 194 195 205 211 213 215 211 195 189 186 199 188 176 179 178 178 169 156 154 151 151 148 145 140 140 140 140 136 128 117 110 93 86 94 97 109 132 146 146 146 157 166 164 164 162 152 145 149 149 154 146 129 116 113 123 127 131 133 134 134 144 145
164 166 168 169 172 177 187 184 193 194 196 198 196 193 191 189 190 191 181 169 172 177 183 188 196 204 207 213 206 194 195 189 192 189 183 182 181 179 169 165 162 161 155 152 153 148 144 142 144 140 137 136 137 137 138 122 107 103 105 113 141 152 159 162 167 165 162 157 156 149 149 150 152 150 142 135 141 141 126 130 126 127 130 130 135
165 167 170 171 177 180 183 185 192 194 197 194 190 187 181 183 184 186 171 165 174 179 180 188 198 201 205 201 183 191 192 183 179 182 194 187 182 174 167 166 161 156 151 156 157 151 152 151 149 148 145 145 150 154 156 155 155 144 137 130 127 133 149 156 154 159 159 153 148 142 142 145 153 156 151 145 151 143 139 140 139 137 134 134 136
169 171 175 178 184 188 185 182 184 189 191 185 180 182 182 185 189 185 165 166 176 185 193 193 193 196 194 191 182 191 184 184 180 193 202 192 181 170 169 167 161 162 159 158 163 162 158 160 157 154 153 149 154 161 164 165 169 169 163 161 150 129 128 141 148 151 148 152 155 159 152 149 145 148 150 149 145 138 142 150 148 143 143 144 153
170 174 179 183 186 183 181 181 187 187 185 179 173 174 180 191 201 201 182 171 183 192 199 199 200 195 198 194 189 188 192 190 186 189 197 190 183 174 171 172 172 167 168 163 164 168 169 168 170 168 167 168 168 170 172 175 174 175 175 173 167 143 138 139 153 167 146 139 140 141 141 144 143 144 149 146 135 137 157 154 148 147 152 158 156